[[{"header":{"parameterUnit":"m.s-1","parameterCategory":1,"la1":30.2991,"la2":30.254,"lo1":-89.0895,"lo2":-89.0444,"dy":0.0017,"dx":0.0017,"nx":28,"ny":28,"refTime":"2024-04-11T03:00:00:Z","depth":0,"parameterNumber":2,"parameterNumberName":"U-component_of_WINDS"},"data":[0,0,0,0,0,0,0,0,0,0,0,0,0,0,0,0,0,0,0,0,0,0,0,0,0,0,0,0,0,0,0,0,0,0,0,0,0,0,0,0,0,0,0,0,0,0,0,0,0,0,0,0,0,0,0,0,0,0,2.862,2.8621,0,2.8754,2.8756,2.8757,2.8787,2.8786,2.8785,2.8784,2.8928,2.8932,2.8937,0,0,0,0,0,0,0,0,0,0,0,0,0,2.8395,2.8399,2.862,2.8621,2.8623,2.8754,2.8756,2.8758,2.8787,2.8786,2.8785,2.8784,2.8926,2.8932,2.8937,0,0,0,0,0,0,0,0,0,0,0,0,0,2.8508,2.84,2.8619,2.8653,2.8658,2.8754,2.8756,2.8758,2.8788,2.8786,2.8785,2.8783,2.8924,2.8931,2.8938,2.9011,0,0,2.896,2.8963,0,0,0,0,0,0,0,0,2.8501,2.8516,2.8647,2.8651,2.8656,2.8752,2.8729,2.8843,2.8788,2.8739,2.8784,2.8783,2.8871,2.8882,2.8911,2.9018,2.9024,2.896,2.8965,2.8968,2.897,0,0,0,0,0,0,0,2.8493,2.851,2.8673,2.8649,2.8655,2.8664,2.8679,2.8751,2.8812,2.8743,2.8745,2.8761,2.8873,2.8904,2.8914,2.9026,2.896,2.8966,2.8971,2.8974,2.9204,2.9206,0,0,0,0,0,0,2.8479,2.8504,2.8669,2.8677,2.8573,2.867,2.8686,2.8723,2.8811,2.8823,2.8762,2.8761,2.8893,2.8906,2.892,2.9014,2.8968,2.8974,2.8978,2.9202,2.9205,2.9207,0,0,0,0,0,0,2.8474,2.8493,2.8663,2.8591,2.8613,2.8675,2.8717,2.8727,2.8757,2.8825,2.8836,2.8781,2.8892,2.891,2.8989,2.9019,2.8977,2.8984,2.92,2.9203,2.9206,2.92,0,0,0,0,0,0,2.8467,2.8491,2.8518,2.8591,2.8617,2.8728,2.8719,2.873,2.8769,2.877,2.8847,2.8858,2.8892,2.8978,2.8996,2.9028,2.8989,2.9198,2.9201,2.9205,2.9198,2.9202,2.9206,0,0,0,0,0,2.8459,2.8511,2.8519,2.8539,2.8651,2.8729,2.8745,2.8781,2.8771,2.88,2.8844,2.8856,2.9012,2.8986,2.9006,2.9041,2.9196,2.92,2.9204,2.9196,2.9201,2.9206,0,0,0,0,0,0,2.844,2.8521,2.8531,2.8608,2.8661,2.8734,2.8771,2.8785,2.8844,2.8843,2.8888,2.8905,2.8982,2.9019,2.8988,2.9118,2.9104,2.9113,2.9091,2.9097,2.9101,2.9091,2.8995,0,0,0,0,0,2.8445,2.85,2.8568,2.863,2.8656,2.8709,2.8744,2.8768,2.8826,2.885,2.8899,2.8957,2.902,2.906,2.9121,2.9203,2.9222,2.9237,2.9242,2.9245,2.9252,2.9301,2.931,2.922,2.922,2.922,0,0,2.8456,2.8507,2.8538,2.8627,2.8672,2.873,2.8728,2.8789,2.8834,2.886,2.8937,2.8976,2.9044,2.9125,2.9164,2.9159,2.9281,2.925,2.9252,2.9258,2.9307,2.9315,2.9323,2.9223,2.9223,2.9222,0,0,2.8505,2.8547,2.8605,2.865,2.8717,2.8752,2.8766,2.8837,2.8864,2.8942,2.8964,2.9019,2.9125,2.9173,2.9211,2.9282,2.9296,2.9301,2.9323,2.9371,2.9378,2.9384,2.9412,2.9421,2.9308,2.9308,2.9308,0,2.851,2.8596,2.8633,2.8694,2.8734,2.8759,2.8819,2.8861,2.8946,2.8974,2.8967,2.9102,2.9149,2.9244,2.9261,2.9291,2.9311,2.9292,2.9373,2.938,2.9387,2.9414,2.9424,2.9308,2.9308,2.9308,2.9308,0,2.8601,2.8661,2.87,2.8779,2.8824,2.8884,2.8932,2.8973,2.8994,2.9031,2.9112,2.917,2.9245,2.9269,2.929,2.9368,2.9363,2.9364,2.9351,2.9395,2.9421,2.9432,2.9308,2.9308,2.9308,2.9308,0,0,2.8641,2.8742,2.8756,2.8794,2.8871,2.8919,2.8982,2.9054,2.9089,2.9147,2.9203,2.9293,2.9296,2.9339,2.9366,2.9408,2.9464,2.9404,2.9407,2.9415,2.9557,2.9557,2.9568,2.9473,2.9475,2.9477,2.9552,0,2.8702,2.8812,2.8848,2.8942,2.9,2.9026,2.9082,2.9136,2.9173,2.923,2.9271,2.9335,2.9332,2.9359,2.9401,2.9448,2.9493,2.9443,2.9528,2.9531,2.9512,2.9581,2.9581,2.9648,2.9562,2.9564,2.9565,0,2.8786,2.8845,2.8944,2.9016,2.9042,2.9091,2.9161,2.9214,2.9278,2.9302,2.9352,2.9376,2.9446,2.9428,2.9527,2.9492,2.953,2.9558,2.9562,2.9572,2.9551,2.9595,2.967,2.9681,2.9581,2.958,2.9579,0,2.8809,2.8913,2.8986,2.9018,2.9103,2.9137,2.9175,2.9237,2.9279,2.9341,2.937,2.944,2.9478,2.9533,2.9577,2.956,2.9673,2.9659,2.9698,2.9697,2.9721,2.972,2.9805,2.9743,2.9742,2.9742,2.9742,0,2.8873,2.8933,2.8998,2.9043,2.9112,2.9155,2.9223,2.9262,2.9318,2.9374,2.9401,2.9453,2.9507,2.9567,2.9602,2.968,2.9697,2.9721,2.973,2.9719,2.9717,2.9745,2.9743,2.9745,2.9744,2.9744,2.9743,0,2.891,2.8955,2.9038,2.9112,2.9132,2.918,2.9246,2.9292,2.9331,2.9401,2.942,2.9481,2.9554,2.9602,2.9695,2.9719,2.9805,2.9812,2.9783,2.9787,2.9825,2.9821,2.9933,2.9951,2.9875,2.9875,2.9876,0,2.8949,2.8996,2.9076,2.9114,2.9152,2.9213,2.9256,2.9301,2.9345,2.9423,2.9461,2.9535,2.9596,2.9712,2.9766,2.9838,2.9848,2.9883,2.9859,2.9849,2.9852,2.9849,2.9855,2.9887,2.9887,2.9888,2.9888,0,2.9014,2.9035,2.9094,2.9163,2.9213,2.927,2.9327,2.9357,2.9412,2.9461,2.9535,2.9582,2.9678,2.9752,2.983,2.9871,2.9891,2.9895,2.9908,2.9899,2.9881,2.9894,2.9795,2.9893,2.9892,2.9892,2.9892,2.9891,2.9055,2.9099,2.9162,2.9229,2.9277,2.933,2.9378,2.9422,2.9484,2.9564,2.9587,2.9665,2.9731,2.9837,2.988,2.9944,2.9941,2.9959,2.9964,2.9969,2.997,2.9869,2.9958,2.9958,2.9958,2.9958,2.9958,0,2.9123,2.9166,2.9227,2.9305,2.9359,2.937,2.9434,2.9479,2.9546,2.9606,2.9666,2.9752,2.9825,2.9886,2.9962,3.0001,3.0012,3.002,3.0018,3.0028,2.9967,2.9949,3.001,3.001,3.001,3.001,3.001,3.001,2.9165,2.9241,2.927,2.9371,2.9413,2.9488,2.9525,2.9575,2.9623,2.9718,2.9778,2.9816,2.9877,2.9958,3.0027,3.0043,3.0071,3.0077,3.0096,3.0038,3.0032,3.0026,3.001,3.0082,3.0082,3.0152,3.0152,3.0153]},{"header":{"parameterUnit":"m.s-1","parameterCategory":1,"la1":30.2991,"la2":30.254,"lo1":-89.0895,"lo2":-89.0444,"dy":0.0017,"dx":0.0017,"nx":28,"ny":28,"refTime":"2024-04-11T03:00:00:Z","depth":0,"parameterNumber":3,"parameterNumberName":"V-component_of_WINDS"},"data":[0,0,0,0,0,0,0,0,0,0,0,0,0,0,0,0,0,0,0,0,0,0,0,0,0,0,0,0,0,0,0,0,0,0,0,0,0,0,0,0,0,0,0,0,0,0,0,0,0,0,0,0,0,0,0,0,0,0,-0.8725,-0.8724,0,-0.862,-0.8619,-0.8617,-0.8681,-0.8684,-0.8687,-0.869,-0.858,-0.8574,-0.8569,0,0,0,0,0,0,0,0,0,0,0,0,0,-0.8981,-0.8976,-0.8725,-0.8724,-0.8722,-0.862,-0.8618,-0.8617,-0.868,-0.8684,-0.8688,-0.8691,-0.8582,-0.8575,-0.8568,0,0,0,0,0,0,0,0,0,0,0,0,0,-0.8872,-0.8975,-0.8725,-0.8742,-0.8742,-0.862,-0.8618,-0.8617,-0.868,-0.8684,-0.8689,-0.8693,-0.8584,-0.8576,-0.8567,-0.8422,0,0,-0.8541,-0.8537,0,0,0,0,0,0,0,0,-0.8878,-0.8863,-0.8741,-0.8741,-0.8741,-0.8668,-0.8669,-0.8551,-0.8679,-0.8703,-0.869,-0.8695,-0.8605,-0.8595,-0.8566,-0.8417,-0.8412,-0.854,-0.8535,-0.8531,-0.8529,0,0,0,0,0,0,0,-0.8886,-0.8868,-0.8683,-0.8739,-0.8739,-0.8755,-0.8744,-0.8647,-0.863,-0.8702,-0.8706,-0.8693,-0.8606,-0.8574,-0.8563,-0.8411,-0.854,-0.8533,-0.8527,-0.8524,-0.814,-0.8136,0,0,0,0,0,0,-0.8892,-0.8874,-0.8687,-0.868,-0.8822,-0.8746,-0.8735,-0.8687,-0.8631,-0.8627,-0.8689,-0.8696,-0.8586,-0.8573,-0.856,-0.8387,-0.8531,-0.8523,-0.8518,-0.8145,-0.8139,-0.8134,0,0,0,0,0,0,-0.8898,-0.8875,-0.8691,-0.8778,-0.8756,-0.8737,-0.8683,-0.8682,-0.865,-0.8622,-0.8619,-0.8659,-0.8589,-0.8572,-0.8457,-0.8384,-0.8519,-0.8511,-0.8151,-0.8144,-0.8137,-0.8041,0,0,0,0,0,0,-0.8905,-0.8876,-0.8821,-0.8776,-0.8751,-0.8589,-0.8678,-0.8677,-0.8635,-0.8643,-0.8593,-0.8588,-0.8592,-0.8469,-0.8448,-0.8375,-0.8504,-0.8158,-0.8148,-0.8139,-0.805,-0.8031,-0.8014,0,0,0,0,0,-0.8914,-0.8797,-0.8818,-0.8795,-0.8681,-0.8585,-0.857,-0.8577,-0.8629,-0.8573,-0.8556,-0.859,-0.8396,-0.8457,-0.8433,-0.8357,-0.8162,-0.8151,-0.814,-0.8058,-0.8035,-0.8015,0,0,0,0,0,0,-0.8832,-0.8792,-0.8814,-0.868,-0.8636,-0.8596,-0.8525,-0.8551,-0.8491,-0.8501,-0.8511,-0.8499,-0.8379,-0.8357,-0.8425,-0.8215,-0.8287,-0.8271,-0.8233,-0.8211,-0.8193,-0.8201,-0.8497,0,0,0,0,0,-0.8799,-0.8725,-0.8693,-0.8578,-0.8555,-0.8544,-0.8502,-0.8511,-0.8465,-0.8447,-0.8421,-0.8374,-0.8304,-0.8256,-0.8189,-0.8048,-0.8038,-0.7984,-0.7966,-0.7952,-0.7937,-0.7862,-0.7838,-0.8097,-0.8097,-0.8097,0,0,-0.8729,-0.8698,-0.865,-0.8561,-0.8528,-0.845,-0.8527,-0.8442,-0.8385,-0.8433,-0.8323,-0.8303,-0.8252,-0.8124,-0.8066,-0.8101,-0.7864,-0.7937,-0.7926,-0.7919,-0.7848,-0.7824,-0.7802,-0.8089,-0.8091,-0.8092,0,0,-0.8562,-0.8531,-0.8432,-0.8398,-0.8347,-0.8341,-0.8318,-0.8274,-0.8263,-0.8153,-0.8188,-0.8121,-0.7998,-0.7961,-0.7926,-0.7748,-0.7778,-0.7726,-0.7631,-0.7558,-0.7538,-0.752,-0.7457,-0.7434,-0.7711,-0.7711,-0.7711,0,-0.8481,-0.8366,-0.8378,-0.829,-0.825,-0.8293,-0.8193,-0.8159,-0.8088,-0.806,-0.8101,-0.795,-0.7918,-0.7783,-0.7739,-0.771,-0.7683,-0.7731,-0.754,-0.7522,-0.7506,-0.7446,-0.7422,-0.7705,-0.7706,-0.7706,-0.7707,0,-0.827,-0.819,-0.8116,-0.8049,-0.8001,-0.7907,-0.7905,-0.7855,-0.7869,-0.7859,-0.7747,-0.7712,-0.7639,-0.7608,-0.762,-0.7474,-0.7498,-0.7539,-0.7612,-0.7475,-0.7419,-0.7396,-0.7697,-0.7699,-0.7701,-0.7702,0,0,-0.8046,-0.7988,-0.7961,-0.7932,-0.788,-0.7818,-0.7728,-0.7658,-0.7615,-0.7566,-0.749,-0.7387,-0.7426,-0.7386,-0.7395,-0.7331,-0.7193,-0.738,-0.7379,-0.7347,-0.7032,-0.7,-0.6973,-0.7214,-0.7209,-0.7206,-0.7036,0,-0.7876,-0.7718,-0.7727,-0.7579,-0.7506,-0.7546,-0.7468,-0.7428,-0.7416,-0.7353,-0.7341,-0.7267,-0.7324,-0.73,-0.7239,-0.7223,-0.713,-0.7236,-0.7143,-0.714,-0.7154,-0.6944,-0.691,-0.6751,-0.7014,-0.701,-0.7008,0,-0.7656,-0.7601,-0.7445,-0.7407,-0.7377,-0.7305,-0.7243,-0.7182,-0.7138,-0.7135,-0.7092,-0.7112,-0.7021,-0.7098,-0.6973,-0.7044,-0.7008,-0.6994,-0.6989,-0.6979,-0.7065,-0.6929,-0.6701,-0.6677,-0.6973,-0.6976,-0.6978,0,-0.7509,-0.7396,-0.7289,-0.7262,-0.7214,-0.7164,-0.7141,-0.7102,-0.706,-0.7006,-0.6979,-0.6915,-0.6879,-0.6829,-0.6832,-0.6887,-0.6705,-0.6782,-0.67,-0.67,-0.6659,-0.6661,-0.6421,-0.6636,-0.6636,-0.6637,-0.6637,0,-0.7317,-0.7221,-0.7222,-0.7156,-0.7049,-0.7061,-0.6956,-0.6939,-0.6904,-0.6836,-0.6868,-0.6803,-0.6811,-0.6746,-0.6747,-0.6645,-0.6628,-0.6623,-0.6624,-0.662,-0.662,-0.6595,-0.6606,-0.663,-0.6632,-0.6633,-0.6634,0,-0.7134,-0.7131,-0.7017,-0.6982,-0.6971,-0.6894,-0.6864,-0.6802,-0.6795,-0.6709,-0.6689,-0.6677,-0.6603,-0.6601,-0.6515,-0.6517,-0.6391,-0.6405,-0.6406,-0.6408,-0.6327,-0.6334,-0.6061,-0.6026,-0.6264,-0.6262,-0.626,0,-0.7012,-0.6939,-0.6897,-0.6854,-0.6829,-0.6759,-0.6717,-0.6726,-0.6681,-0.6628,-0.6572,-0.6501,-0.6444,-0.6324,-0.6308,-0.6243,-0.6256,-0.6165,-0.6246,-0.6244,-0.6254,-0.6258,-0.6252,-0.6148,-0.6145,-0.6143,-0.6142,0,-0.6795,-0.6798,-0.6736,-0.6674,-0.6624,-0.6575,-0.6531,-0.6494,-0.6499,-0.6447,-0.6372,-0.6328,-0.6242,-0.6171,-0.6109,-0.6086,-0.6114,-0.6117,-0.6094,-0.6088,-0.6092,-0.6089,-0.6362,-0.6122,-0.6124,-0.6126,-0.6127,-0.6127,-0.6638,-0.6576,-0.6537,-0.6468,-0.6436,-0.6394,-0.6334,-0.6321,-0.6258,-0.6189,-0.6199,-0.6116,-0.6076,-0.5996,-0.5968,-0.5904,-0.5935,-0.5903,-0.5894,-0.5886,-0.5877,-0.6103,-0.5892,-0.5893,-0.5894,-0.5894,-0.5894,0,-0.6423,-0.6401,-0.6338,-0.6275,-0.6221,-0.6254,-0.6207,-0.6159,-0.6086,-0.6047,-0.5991,-0.5906,-0.5838,-0.5818,-0.5753,-0.5705,-0.5716,-0.5688,-0.5691,-0.5685,-0.5853,-0.5879,-0.568,-0.568,-0.568,-0.568,-0.568,-0.568,-0.6305,-0.6202,-0.62,-0.6082,-0.606,-0.5979,-0.595,-0.5912,-0.5881,-0.5785,-0.5729,-0.5717,-0.5685,-0.5619,-0.5559,-0.5555,-0.5529,-0.5495,-0.5496,-0.5652,-0.5673,-0.5694,-0.5718,-0.5489,-0.5489,-0.5334,-0.5332,-0.5331]}]]